{"data":{"norad_id":61558,"intl_designator":"2024-185G","name":"QIANFAN-25","alt_names":[],"object_type":"PAYLOAD","status":"ACTIVE","operator":null,"country":"PRC","launch_date":"2024-10-15","launch_site_code":"TAISC","launch_vehicle":null,"mission":null,"orbit_class":"UNKNOWN","rcs_meters":null,"size_class":null,"mass_kg":null,"dimensions":null,"purposes":[],"wikipedia_slug":null,"has_3d_model":false,"image_url":null,"decayed_at":null,"tle_current":{"epoch":"2026-09-22T21:22:56.877312Z","epoch_age_seconds":90886,"freshness":"FRESH","line1":"1 61558U 24185G   26265.89093608  .00000400  00000+0  23475-3 0  9996","line2":"2 61558  88.9848  46.0399 0013315 163.6524 196.5091 14.06133076109432","mean_motion":14.06133076,"eccentricity":0.0013315,"inclination_deg":88.9848,"raan_deg":46.0399,"arg_perigee_deg":163.6524,"mean_anomaly_deg":196.5091,"bstar":0.00023475,"rev_number":10943,"period_min":102.40851485382,"perigee_km":862.98020119864,"apogee_km":882.289005979,"semimajor_km":7250.7716035888,"source":"CELESTRAK","updated_at":"2026-09-23T09:00:20.904228Z"}}}